Tracking 29042 objects as of 22-Jun-2024
HD Live streaming from Space Station
objects crossing your sky now

STARLINK-31823

Track STARLINK-31823 now!
10-day predictions
STARLINK-31823 is classified as:


NORAD ID: 59794
Int'l Code: 2024-093N
Perigee: 450.5 km
Apogee: 451.8 km
Inclination: 43.0 °
Period: 93.5 minutes
Semi major axis: 6822 km
RCS: Unknown
Launch date: May 18, 2024
Source: United States (US)
Launch site: AIR FORCE EASTERN TEST RANGE (AFETR)
Your satellite tracking list
Your tracking list is empty




NASA's NSSDC Master Catalog

Two Line Element Set (TLE):
1 59794U 24093N   24173.21603403  .00004535  00000-0  11572-3 0  9994
2 59794  42.9994 175.5120 0000969 287.1697  72.9054 15.40710459  6557
Source of the keplerian elements: AFSPC